Погода в Синде

Россия / Хабаровский край     48°57′21″N   136°17′37″E
темп.,
°C
ветер,
м/с
пор.,
м/с
влажн.,
%
обл.,
%
осадки,
мм/ч
давл.,
гПа
погр.,
м
6 марта, сб
сб601:00−17юз2397100 0.7 1024102
04:00−22ююз51092100 0.9 1025323
07:00−24ю6139397 0.0 1027399
10:00−22ююз7128796 0.1 1028583
13:00−17ююз7107883 0.0 1027986
16:00−15юз697792 0.0 10261054
19:00−16ююз6128067 0.0 1027358
22:00−17ююз6128733 0.0 1028265
7 марта, вс
вс701:00−19ююз611870 0.0 1027280
04:00−19ююз613850 0.0 1027361
07:00−19ююз613926 0.0 1026396
10:00−16ююз7138747 0.0 1025609
13:00−12юз71283100 0.0 1023834
16:00−11юз61187100 0.1 1021861
19:00−12юз498493 0.1 1021267
22:00−15ююз479172 0.1 1022126
8 марта, пн
пн801:00−16ююз499430 0.0 1022186
04:00−17ююз479751 0.0 1023140
07:00−18ююз469741 0.0 1024129
10:00−14ююз5109047 0.0 1024464
13:00−10ююз6108494 0.0 1024722
16:00−8юз6118387 0.0 1022756
19:00−11ююз5128962 0.0 1022404
22:00−11ююз6128980 0.0 1023379
9 марта, вт
вт901:00−10ююз61289100 0.0 1021362
04:00−9ююз6148599 0.0 1019463
07:00−8ююз61483100 0.0 1016506
10:00−6ююз7138198 0.0 1012591
13:00−2юз61081100 0.0 1009790
16:00−1юз5885100 0.0 1006911
19:00−3ссв3597100 1.1 1005160
22:00−5с3796100 2.8 1007328
10 марта, ср
ср1001:00−6с61393100 1.3 1010641
04:00−9сз4891100 1.4 1014210
07:00−12ссз228583 0.0 101921
10:00−8юз248742 0.0 1022174
13:00−4ююз35842 0.0 1022499
16:00−3юз47861 0.0 1022593
19:00−7ююз479251 0.0 1023134
22:00−8ю5119275 0.0 1024279